TimeEDT,TemperatureF,Dew PointF,Humidity,Sea Level PressureIn,VisibilityMPH,Wind Direction,Wind SpeedMPH,Gust SpeedMPH,PrecipitationIn,Events,Conditions,WindDirDegrees,DateUTC
12:52 AM,39.0,35.1,86,30.19,10.0,Calm,Calm,-,0.00,,Clear,0,2013-09-06 04:52:00
1:52 AM,37.0,34.0,89,30.19,10.0,Calm,Calm,-,0.00,Rain,Light Rain,0,2013-09-06 05:52:00
2:06 AM,35.6,33.8,93,30.18,2.5,Calm,Calm,-,N/A,,Partly Cloudy,0,2013-09-06 06:06:00
2:13 AM,35.6,33.8,93,30.18,2.0,Calm,Calm,-,N/A,,Mostly Cloudy,0,2013-09-06 06:13:00
2:28 AM,35.6,33.8,93,30.18,1.0,Calm,Calm,-,N/A,,Mist,0,2013-09-06 06:28:00
2:35 AM,35.6,33.8,93,30.18,0.5,Calm,Calm,-,N/A,Fog,Fog,0,2013-09-06 06:35:00
2:52 AM,35.1,33.1,92,30.20,2.0,Calm,Calm,-,0.00,,Overcast,0,2013-09-06 06:52:00
2:59 AM,35.6,33.8,93,30.18,10.0,Calm,Calm,-,N/A,,Mostly Cloudy,0,2013-09-06 06:59:00
3:12 AM,35.6,32.0,87,30.18,2.5,Calm,Calm,-,N/A,,Scattered Clouds,0,2013-09-06 07:12:00
3:27 AM,33.8,32.0,93,30.19,3.0,Calm,Calm,-,0.00,,Mostly Cloudy,0,2013-09-06 07:27:00
3:52 AM,34.0,32.0,92,30.21,10.0,Calm,Calm,-,0.00,,Mostly Cloudy,0,2013-09-06 07:52:00
4:02 AM,33.8,32.0,93,30.19,10.0,Calm,Calm,-,N/A,,Scattered Clouds,0,2013-09-06 08:02:00
4:12 AM,33.8,30.2,87,30.19,1.8,Calm,Calm,-,N/A,,Partly Cloudy,0,2013-09-06 08:12:00
4:20 AM,33.8,32.0,93,30.19,4.0,Calm,Calm,-,N/A,,Scattered Clouds,0,2013-09-06 08:20:00
4:27 AM,33.8,32.0,93,30.19,8.0,Calm,Calm,-,N/A,,Mostly Cloudy,0,2013-09-06 08:27:00
4:50 AM,33.8,30.2,87,30.20,10.0,Calm,Calm,-,N/A,,Scattered Clouds,0,2013-09-06 08:50:00
4:52 AM,34.0,30.9,89,30.22,10.0,Calm,Calm,-,N/A,,Scattered Clouds,0,2013-09-06 08:52:00
4:58 AM,33.8,30.2,87,30.20,2.0,Calm,Calm,-,N/A,,Mostly Cloudy,0,2013-09-06 08:58:00
5:01 AM,33.8,32.0,93,30.20,1.0,Calm,Calm,-,N/A,,Mist,0,2013-09-06 09:01:00
5:09 AM,33.8,30.2,87,30.21,0.5,Calm,Calm,-,N/A,Fog,Fog,0,2013-09-06 09:09:00
5:52 AM,33.1,30.9,92,30.24,0.2,Calm,Calm,-,0.01,Fog,Fog,0,2013-09-06 09:52:00
6:52 AM,34.0,32.0,92,30.25,0.2,Calm,Calm,-,N/A,Fog,Fog,0,2013-09-06 10:52:00
6:59 AM,33.8,33.8,100,30.23,1.5,Calm,Calm,-,N/A,,Mostly Cloudy,0,2013-09-06 10:59:00
7:02 AM,33.8,33.8,100,30.23,4.0,Calm,Calm,-,N/A,,Mostly Cloudy,0,2013-09-06 11:02:00
7:09 AM,35.6,33.8,93,30.23,3.0,Calm,Calm,-,N/A,,Scattered Clouds,0,2013-09-06 11:09:00
7:11 AM,35.6,32.0,87,30.23,1.5,Calm,Calm,-,N/A,,Scattered Clouds,0,2013-09-06 11:11:00
7:14 AM,35.6,32.0,87,30.23,0.8,Calm,Calm,-,N/A,,Mist,0,2013-09-06 11:14:00
7:31 AM,35.6,33.8,93,30.24,2.0,Calm,Calm,-,N/A,,Mostly Cloudy,0,2013-09-06 11:31:00
7:38 AM,37.4,35.6,93,30.24,4.0,Calm,Calm,-,N/A,,Overcast,0,2013-09-06 11:38:00
7:41 AM,37.4,35.6,93,30.24,1.5,Calm,Calm,-,N/A,,Overcast,0,2013-09-06 11:41:00
7:49 AM,37.4,35.6,93,30.24,1.0,Calm,Calm,-,N/A,,Overcast,0,2013-09-06 11:49:00
7:52 AM,37.9,37.0,97,30.27,1.8,Calm,Calm,-,N/A,,Overcast,0,2013-09-06 11:52:00
7:55 AM,39.2,37.4,93,30.25,3.0,Calm,Calm,-,N/A,,Mostly Cloudy,0,2013-09-06 11:55:00
8:10 AM,39.2,37.4,93,30.24,10.0,Calm,Calm,-,N/A,,Scattered Clouds,0,2013-09-06 12:10:00
8:52 AM,46.0,41.0,83,30.28,10.0,Calm,Calm,-,N/A,,Clear,0,2013-09-06 12:52:00
9:52 AM,53.1,39.9,61,30.26,10.0,Calm,Calm,-,N/A,,Clear,0,2013-09-06 13:52:00
10:52 AM,57.0,37.9,49,30.25,10.0,West,6.9,-,N/A,,Clear,260,2013-09-06 14:52:00
11:52 AM,59.0,39.0,48,30.23,10.0,Variable,4.6,-,N/A,,Clear,0,2013-09-06 15:52:00
12:52 PM,61.0,39.0,44,30.21,10.0,West,5.8,-,N/A,,Clear,280,2013-09-06 16:52:00
1:52 PM,63.0,39.0,41,30.19,10.0,Calm,Calm,-,N/A,,Clear,0,2013-09-06 17:52:00
2:52 PM,64.0,41.0,43,30.17,10.0,West,8.1,-,N/A,,Clear,260,2013-09-06 18:52:00
3:52 PM,64.0,39.0,40,30.14,10.0,Variable,3.5,-,N/A,,Clear,0,2013-09-06 19:52:00
4:52 PM,64.9,37.9,37,30.14,10.0,West,8.1,-,N/A,,Clear,270,2013-09-06 20:52:00
5:52 PM,64.0,39.0,40,30.12,10.0,West,4.6,-,N/A,,Clear,260,2013-09-06 21:52:00
6:52 PM,59.0,44.1,58,30.11,10.0,SW,3.5,-,N/A,,Clear,230,2013-09-06 22:52:00
7:52 PM,52.0,46.0,80,30.12,10.0,Calm,Calm,-,N/A,,Clear,0,2013-09-06 23:52:00
8:52 PM,48.9,45.0,86,30.11,10.0,Calm,Calm,-,N/A,,Clear,0,2013-09-07 00:52:00
9:52 PM,48.0,44.1,86,30.10,10.0,Calm,Calm,-,N/A,,Clear,0,2013-09-07 01:52:00
10:52 PM,46.0,43.0,89,30.10,10.0,Calm,Calm,-,N/A,,Clear,0,2013-09-07 02:52:00
11:52 PM,44.1,41.0,89,30.09,10.0,Calm,Calm,-,N/A,,Clear,0,2013-09-07 03:52:00